Find Starlink 30405

NORAD ID: 57851 Int'l Des: 2023-141 Owner: SPXS Country: US Constellation: starlink operational
LEOCIRCULAR

現在のビュー

3D地球を読み込み中...

About Starlink 30405

Starlink 30405 (NORAD 57851) is a starlink constellation satellite (v2 mini) launched Sep 12, 2023 by SPXS of US. It operates in LEO, CIRCULAR orbit with a mass of 730.00 kg.

次回通過

Passes for default location (London). Set your location on the main map for personalized predictions.

高度履歴

Loading altitude history...

軌道要素

1 57851U 23141M 26264.92971107 .00000748 00000-0 35861-4 0 9999
2 57851 53.1600 91.1083 0001206 88.6420 271.4720 15.31704721170396
Epoch: Sep 21, 2026 • Age: 28 hours

現在のステータス

高度 474.2 km
遠地点 / 近地点 N/A
速度 7.63 km/s
衛星直下点 -12.07°S, 37.99°E
打ち上げ日 Sep 12, 2023
運用期間 3 years
タイプ internet

技術仕様

分類 Payload
質量 730.00 kg
乾燥質量 700.00 kg
長さ 0.30 m
スパン 29.00 m
形状 ? Box + pan
製造者 SPXS
バスタイプ Starlink V2M
フェーズステータス In Orbit
所有者/国 SPXS/US

Most Searched